This is the latest recevied weather packets stored in our database for station/object DO7ZT-10. If no packets are shown the sender has not sent any weather packets the latest 10 day(s).
| Time | Temp. | Humidity | Pressure | Rain* | Wind** | Luminosity | Snow |
|---|---|---|---|---|---|---|---|
| 1777863807 | 16.67° C | 43% | 1013.1 hPa | - | - | - | - |
| 1777862906 | 17.22° C | 42% | 1013 hPa | - | - | - | - |
| 1777862006 | 17.22° C | 41% | 1012.9 hPa | - | - | - | - |
| 1777861106 | 17.22° C | 42% | 1012.7 hPa | - | - | - | - |
| 1777860206 | 17.22° C | 42% | 1012.7 hPa | - | - | - | - |
| 1777859306 | 17.22° C | 42% | 1012.7 hPa | - | - | - | - |
| 1777858406 | 17.22° C | 40% | 1012.5 hPa | - | - | - | - |
| 1777857506 | 17.78° C | 40% | 1012.5 hPa | - | - | - | - |
| 1777856606 | 18.33° C | 39% | 1012.4 hPa | - | - | - | - |
| 1777855706 | 17.78° C | 39% | 1012.1 hPa | - | - | - | - |
| 1777854806 | 17.78° C | 39% | 1012.2 hPa | - | - | - | - |
| 1777853906 | 18.33° C | 38% | 1012.2 hPa | - | - | - | - |
| 1777853005 | 18.33° C | 39% | 1012.1 hPa | - | - | - | - |
| 1777852105 | 18.33° C | 38% | 1012 hPa | - | - | - | - |
| 1777851205 | 18.33° C | 37% | 1011.5 hPa | - | - | - | - |
| 1777850305 | 18.89° C | 36% | 1011.6 hPa | - | - | - | - |
| 1777849405 | 18.89° C | 35% | 1011.6 hPa | - | - | - | - |
| 1777848505 | 19.44° C | 35% | 1011.5 hPa | - | - | - | - |
| 1777847605 | 19.44° C | 35% | 1011.5 hPa | - | - | - | - |
| 1777846705 | 20° C | 34% | 1011.5 hPa | - | - | - | - |
| 1777845805 | 20° C | 34% | 1011.6 hPa | - | - | - | - |
| 1777844905 | 20° C | 34% | 1011.5 hPa | - | - | - | - |
| 1777844005 | 20° C | 34% | 1011.7 hPa | - | - | - | - |
| 1777843105 | 20° C | 34% | 1011.6 hPa | - | - | - | - |
| 1777842205 | 20° C | 34% | 1011.7 hPa | - | - | - | - |
* Rain since midnight (hover to see other rain measurements)
** Current wind speed in m/s (hover to see current wind gust speed)